DG5MNJ Weather Reports


Display with metric or nautical units.
time (UTC)temp
F
wind
direction
speed
MPH
gust
MPH
rain 1hr
in
rain 24hr
in
rain mn
in
humidity
%
barometer
mb
20260504033502 56 200 3.0 4.0 0.00 0.00 0.00 64 1013.6
20260504033022 56 225 2.0 2.0 0.00 0.00 0.00 64 1013.6
20260504032005 57 220 4.0 4.0 0.00 0.00 0.00 63 1013.7
20260504030502 58 248 1.0 1.0 0.00 0.00 0.00 61 1013.4
20260504030001 57 240 1.0 1.0 0.00 0.00 0.00 61 1013.4
20260504025502 58 238 2.0 2.0 0.00 0.00 0.00 61 1013.6
20260504025003 57 258 2.0 2.0 0.00 0.00 0.00 61 1013.7
20260504024502 57 238 3.0 5.0 0.00 0.00 0.00 61 1013.7
20260504024001 58 255 3.0 3.0 0.00 0.00 0.00 61 1013.7
20260504023501 58 260 3.0 3.0 0.00 0.00 0.00 60 1013.6
20260504023001 58 180 2.0 4.0 0.00 0.00 0.00 60 1013.6
20260504022501 58 218 2.0 2.0 0.00 0.00 0.00 61 1013.7
20260504022002 58 268 2.0 4.0 0.00 0.00 0.00 60 1013.7
20260504021502 58 218 3.0 3.0 0.00 0.00 0.00 60 1013.9
20260504021002 58 250 3.0 3.0 0.00 0.00 0.00 59 1013.9
20260504020501 58 240 4.0 4.0 0.00 0.00 0.00 58 1013.9
20260504015501 59 245 2.0 3.0 0.00 0.00 0.00 55 1014.0
20260504015001 59 258 2.0 4.0 0.00 0.00 0.00 54 1014.0
20260504014501 59 240 2.0 3.0 0.00 0.00 0.00 54 1014.0
20260504014001 59 308 3.0 5.0 0.00 0.00 0.00 53 1013.9
20260504013501 59 302 2.0 4.0 0.00 0.00 0.00 53 1014.0
20260504013001 59 275 5.0 6.0 0.00 0.00 0.00 52 1013.9
20260504012502 59 255 5.0 7.0 0.00 0.00 0.00 53 1013.8
20260504012001 60 260 4.0 5.0 0.00 0.00 0.00 52 1013.9
20260504011501 60 218 3.0 4.0 0.00 0.00 0.00 52 1013.8
20260504011001 60 310 3.0 6.0 0.00 0.00 0.00 52 1013.6
20260504010502 60 295 2.0 3.0 0.00 0.00 0.00 52 1013.7
20260504010021 60 260 2.0 8.0 0.00 0.00 0.00 52 1013.7
20260504005521 60 262 4.0 4.0 0.00 0.00 0.00 54 1013.7
20260504005022 60 290 2.0 2.0 0.00 0.00 0.00 55 1013.7
20260504004501 60 248 4.0 6.0 0.00 0.00 0.00 55 1013.7
20260504004001 60 230 4.0 6.0 0.00 0.00 0.00 56 1013.6
20260504003521 60 288 2.0 4.0 0.00 0.00 0.00 57 1013.6
20260504003001 60 288 4.0 5.0 0.00 0.00 0.00 59 1013.2
20260504002501 60 258 5.0 5.0 0.00 0.00 0.00 60 1013.6
20260504002001 60 318 2.0 3.0 0.00 0.00 0.00 61 1013.3
20260504001501 60 215 3.0 4.0 0.00 0.00 0.00 62 1013.4
20260504001001 60 222 5.0 7.0 0.00 0.00 0.00 62 1013.3
20260504000501 60 260 4.0 7.0 0.00 0.00 0.00 61 1013.4
20260504000001 60 225 5.0 6.0 0.00 0.00 0.00 61 1013.1
20260503235501 60 228 6.0 7.0 0.00 0.00 0.00 60 1013.1
20260503235001 60 245 4.0 6.0 0.00 0.00 0.00 60 1012.9
20260503234501 60 262 4.0 6.0 0.00 0.00 0.00 59 1013.0
20260503233001 60 235 4.0 6.0 0.00 0.00 0.00 57 1012.6
20260503212002 63 270 2.0 3.0 0.00 0.00 0.00 51 1011.6
20260503211502 63 260 3.0 3.0 0.00 0.00 0.00 50 1011.6
20260503211022 63 250 1.0 2.0 0.00 0.00 0.00 51 1011.5
20260503210502 63 238 2.0 2.0 0.00 0.00 0.00 50 1011.3
20260503210003 63 252 1.0 2.0 0.00 0.00 0.00 50 1011.3
20260503205502 64 240 2.0 2.0 0.00 0.00 0.00 50 1011.1
20260503205002 64 215 2.0 3.0 0.00 0.00 0.00 49 1011.2
20260503204501 64 248 2.0 2.0 0.00 0.00 0.00 49 1011.1
20260503204002 64 232 2.0 2.0 0.00 0.00 0.00 49 1011.1
20260503203504 64 240 2.0 2.0 0.00 0.00 0.00 49 1011.1
20260503203002 64 192 2.0 2.0 0.00 0.00 0.00 48 1011.1
20260503202502 65 210 2.0 3.0 0.00 0.00 0.00 48 1010.9
20260503202002 65 218 2.0 2.0 0.00 0.00 0.00 48 1010.8
20260503201502 65 202 2.0 2.0 0.00 0.00 0.00 48 1010.9
20260503201002 65 192 2.0 2.0 0.00 0.00 0.00 47 1010.9
20260503200502 65 222 1.0 2.0 0.00 0.00 0.00 48 1010.9
20260503200022 65 225 2.0 2.0 0.00 0.00 0.00 48 1010.8
20260503195501 65 222 1.0 1.0 0.00 0.00 0.00 47 1010.7
20260503195001 65 180 2.0 2.0 0.00 0.00 0.00 47 1010.8
20260503194501 66 232 1.0 1.0 0.00 0.00 0.00 47 1010.8
20260503194002 66 212 1.0 2.0 0.00 0.00 0.00 46 1010.7
20260503193501 67 215 2.0 2.0 0.00 0.00 0.00 46 1010.7
20260503193001 67 202 2.0 2.0 0.00 0.00 0.00 44 1010.7
20260503192521 68 235 2.0 2.0 0.00 0.00 0.00 43 1010.6
20260503192001 68 245 1.0 1.0 0.00 0.00 0.00 43 1010.5
20260503191501 68 262 1.0 1.0 0.00 0.00 0.00 43 1010.6
20260503191002 68 248 1.0 1.0 0.00 0.00 0.00 42 1010.7
20260503190501 69 255 1.0 2.0 0.00 0.00 0.00 42 1010.5
20260503190022 69 285 2.0 2.0 0.00 0.00 0.00 42 1010.4
20260503185501 69 258 1.0 2.0 0.00 0.00 0.00 41 1010.5
20260503185001 69 265 2.0 4.0 0.00 0.00 0.00 41 1010.4
20260503184521 70 298 5.0 8.0 0.00 0.00 0.00 40 1010.5
20260503184001 70 320 4.0 7.0 0.00 0.00 0.00 40 1010.4
20260503183521 70 268 2.0 4.0 0.00 0.00 0.00 41 1010.4
20260503183002 71 292 3.0 4.0 0.00 0.00 0.00 40 1010.1
20260503182501 71 288 4.0 4.0 0.00 0.00 0.00 40 1010.2
20260503182002 71 258 3.0 6.0 0.00 0.00 0.00 39 1009.9
20260503181502 71 300 6.0 6.0 0.00 0.00 0.00 38 1009.9
20260503181001 72 302 4.0 5.0 0.00 0.00 0.00 38 1009.9
20260503180501 72 275 2.0 5.0 0.00 0.00 0.00 38 1009.8
20260503180001 73 280 2.0 2.0 0.00 0.00 0.00 37 1009.9
20260503175501 73 295 3.0 3.0 0.00 0.00 0.00 36 1009.7
20260503175001 73 262 2.0 3.0 0.00 0.00 0.00 36 1009.6
20260503174501 73 295 3.0 3.0 0.00 0.00 0.00 36 1009.8
20260503174001 74 272 2.0 4.0 0.00 0.00 0.00 35 1009.6
20260503173501 74 320 3.0 4.0 0.00 0.00 0.00 35 1009.6
20260503173001 74 340 4.0 5.0 0.00 0.00 0.00 34 1009.5
20260503172501 74 312 2.0 4.0 0.00 0.00 0.00 34 1009.6
20260503172002 75 300 4.0 4.0 0.00 0.00 0.00 34 1009.8
20260503171501 75 315 5.0 5.0 0.00 0.00 0.00 32 1009.6
20260503171001 76 355 3.0 4.0 0.00 0.00 0.00 32 1009.8
20260503170501 76 330 3.0 3.0 0.00 0.00 0.00 32 1009.7
20260503151002 78 342 4.0 6.0 0.00 0.00 0.00 31 1009.4
20260503150502 78 358 4.0 5.0 0.00 0.00 0.00 31 1009.5
20260503131002 79 260 3.0 3.0 0.00 0.00 0.00 31 1010.4
20260503130502 79 182 2.0 6.0 0.00 0.00 0.00 30 1010.6
20260503110522 77 352 6.0 7.0 0.00 0.00 0.00 35 1012.0
20260503090501 74 280 4.0 6.0 0.00 0.00 0.00 39 1013.4
20260503081502 71 328 3.0 3.0 0.00 0.00 0.00 40 1013.8
20260503081002 71 320 2.0 2.0 0.00 0.00 0.00 43 1013.9
20260503080502 71 8 4.0 5.0 0.00 0.00 0.00 41 1013.9
20260503072502 69 268 3.0 5.0 0.00 0.00 0.00 43 1014.1
20260503072002 69 202 4.0 6.0 0.00 0.00 0.00 44 1014.1
20260503071502 68 258 2.0 3.0 0.00 0.00 0.00 45 1013.9
20260503071002 67 238 2.0 2.0 0.00 0.00 0.00 49 1014.1
20260503070522 66 235 5.0 6.0 0.00 0.00 0.00 50 1014.3
20260503055002 59 222 2.0 2.0 0.00 0.00 0.00 55 1014.3
20260503054502 60 238 1.0 2.0 0.00 0.00 0.00 55 1014.3
20260503054022 60 238 1.0 1.0 0.00 0.00 0.00 55 1014.2
20260503053502 59 222 1.0 1.0 0.00 0.00 0.00 57 1014.3
20260503053002 58 255 1.0 1.0 0.00 0.00 0.00 61 1014.3
20260503052502 56 260 1.0 1.0 0.00 0.00 0.00 62 1014.1
20260503052022 54 238 1.0 2.0 0.00 0.00 0.00 64 1014.3
20260503051502 54 122 2.0 2.0 0.00 0.00 0.00 64 1014.3
20260503051002 53 220 2.0 2.0 0.00 0.00 0.00 65 1014.3
20260503050502 52 212 2.0 2.0 0.00 0.00 0.00 67 1014.5
20260503050002 51 190 2.0 2.0 0.00 0.00 0.00 68 1014.2
20260503045502 50 215 3.0 3.0 0.00 0.00 0.00 68 1014.4
20260503045002 50 248 2.0 2.0 0.00 0.00 0.00 68 1014.4
20260503044502 50 265 2.0 2.0 0.00 0.00 0.00 68 1014.3
20260503044002 50 238 3.0 3.0 0.00 0.00 0.00 68 1014.3
20260503043502 50 195 2.0 3.0 0.00 0.00 0.00 68 1014.3
20260503043002 49 232 2.0 2.0 0.00 0.00 0.00 68 1014.1
20260503042502 49 230 2.0 2.0 0.00 0.00 0.00 68 1014.2
20260503042001 49 212 4.0 4.0 0.00 0.00 0.00 69 1014.0
20260503041502 49 218 3.0 4.0 0.00 0.00 0.00 70 1014.1
20260503041001 48 232 3.0 4.0 0.00 0.00 0.00 70 1014.2
20260503040503 48 198 3.0 3.0 0.00 0.00 0.00 69 1014.1
20260503040021 48 215 2.0 2.0 0.00 0.00 0.00 68 1014.3
20260503035502 48 210 2.0 2.0 0.00 0.00 0.00 67 1014.0
20260503035002 48 238 2.0 3.0 0.00 0.00 0.00 66 1014.2
20260503034502 47 222 1.0 2.0 0.00 0.00 0.00 68 1014.1
20260503034021 47 160 2.0 2.0 0.00 0.00 0.00 68 1014.1